START_TIME,STEP,MOV.,P11,t_acc.,P23,t_acc.,P27,t_acc.,A4,t_acc.
1979-07-23 06:00:22.670 ,0,1,0.,4.8,0.,4.8,1.,4.8,0.,4.8
1979-07-23 06:00:27.470 ,0,1,0.,4.8,0.,4.8,0.,4.8,0.,4.8
1979-07-23 06:00:32.270 ,0,1,1.,4.8,0.,4.8,0.,4.8,0.,4.8
1979-07-23 06:00:37.070 ,0,1,0.,4.8,0.,4.8,0.,4.8,0.,4.8
1979-07-23 06:00:41.870 ,0,1,0.,4.8,0.,4.8,1.,4.8,0.,4.8
1979-07-23 06:00:46.670 ,4,1,0.,4.8,0.,4.8,0.,4.8,0.,4.8
1979-07-23 06:00:51.470 ,4,1,2.,4.8,0.,4.8,0.,4.8,0.,4.8
1979-07-23 06:00:56.270 ,4,1,0.,4.8,0.,4.8,1.,4.8,0.,4.8
1979-07-23 06:01:01.070 ,4,1,0.,4.8,0.,4.8,0.,4.8,0.,4.8
1979-07-23 06:01:05.870 ,4,1,0.,4.8,0.,4.8,0.,4.8,0.,4.8
1979-07-23 06:01:10.670 ,7,1,0.,4.8,1.,4.8,0.,4.8,0.,4.8
1979-07-23 06:01:15.470 ,7,1,1.,4.8,0.,4.8,0.,4.8,0.,4.8
1979-07-23 06:01:20.270 ,7,1,0.,4.8,0.,4.8,0.,4.8,0.,4.8
1979-07-23 06:01:25.070 ,7,1,0.,4.8,0.,4.8,0.,4.8,0.,4.8
1979-07-23 06:01:29.870 ,7,1,0.,4.8,0.,4.8,0.,4.8,0.,4.8
1979-07-23 06:01:34.670 ,3,1,0.,4.8,1.,4.8,0.,4.8,0.,4.8
1979-07-23 06:01:39.470 ,3,1,0.,4.8,0.,4.8,0.,4.8,0.,4.8
1979-07-23 06:01:44.270 ,3,1,0.,4.8,0.,4.8,1.,4.8,0.,4.8
1979-07-23 06:01:49.070 ,3,1,1.,4.8,0.,4.8,0.,4.8,0.,4.8
1979-07-23 06:01:53.870 ,3,1,0.,4.8,0.,4.8,0.,4.8,1.,4.8
1979-07-23 06:01:58.670 ,0,1,1.,4.8,0.,4.8,0.,4.8,0.,4.8
1979-07-23 06:02:03.470 ,0,1,2.,4.8,0.,4.8,0.,4.8,0.,4.8
1979-07-23 06:02:08.270 ,0,1,0.,4.8,0.,4.8,0.,4.8,0.,4.8
1979-07-23 06:02:13.070 ,0,1,1.,4.8,0.,4.8,1.,4.8,0.,4.8
1979-07-23 06:02:17.870 ,0,1,1.,4.8,0.,4.8,0.,4.8,0.,4.8
1979-07-23 06:02:22.670 ,4,1,0.,4.8,0.,4.8,1.,4.8,0.,4.8
1979-07-23 06:02:27.470 ,4,1,1.,4.8,0.,4.8,1.,4.8,0.,4.8
1979-07-23 06:02:32.270 ,4,1,0.,4.8,0.,4.8,0.,4.8,0.,4.8
1979-07-23 06:02:37.070 ,4,1,0.,4.8,0.,4.8,0.,4.8,0.,4.8
1979-07-23 06:02:41.870 ,4,1,0.,4.8,0.,4.8,0.,4.8,0.,4.8
1979-07-23 06:02:46.670 ,7,1,1.,4.8,0.,4.8,0.,4.8,0.,4.8
1979-07-23 06:02:51.470 ,7,1,0.,4.8,0.,4.8,0.,4.8,0.,4.8
1979-07-23 06:02:56.270 ,7,1,2.,4.8,0.,4.8,0.,4.8,0.,4.8
1979-07-23 06:03:01.070 ,7,1,2.,4.8,0.,4.8,0.,4.8,0.,4.8
1979-07-23 06:03:05.870 ,7,1,3.,4.8,0.,4.8,0.,4.8,0.,4.8
1979-07-23 06:03:10.670 ,3,1,0.,4.8,0.,4.8,0.,4.8,0.,4.8
1979-07-23 06:03:15.470 ,3,1,1.,4.8,0.,4.8,0.,4.8,0.,4.8
1979-07-23 06:03:20.270 ,3,1,0.,4.8,0.,4.8,0.,4.8,0.,4.8
1979-07-23 06:03:25.070 ,3,1,2.,4.8,0.,4.8,0.,4.8,0.,4.8
1979-07-23 06:03:29.870 ,3,1,0.,4.8,0.,4.8,0.,4.8,0.,4.8
1979-07-23 06:03:34.670 ,0,1,0.,4.8,0.,4.8,1.,4.8,1.,4.8
1979-07-23 06:03:39.470 ,0,1,0.,4.8,0.,4.8,0.,4.8,0.,4.8
1979-07-23 06:03:44.270 ,0,1,1.,4.8,0.,4.8,0.,4.8,0.,4.8
1979-07-23 06:03:49.070 ,0,1,0.,4.8,0.,4.8,0.,4.8,0.,4.8
1979-07-23 06:03:53.870 ,0,1,1.,4.8,0.,4.8,0.,4.8,0.,4.8
1979-07-23 06:03:58.670 ,4,1,0.,4.8,0.,4.8,0.,4.8,0.,4.8
1979-07-23 06:04:03.470 ,4,1,0.,4.8,0.,4.8,1.,4.8,0.,4.8
1979-07-23 06:04:08.270 ,4,1,0.,4.8,0.,4.8,0.,4.8,0.,4.8
1979-07-23 06:04:13.070 ,4,1,0.,4.8,0.,4.8,0.,4.8,0.,4.8
1979-07-23 06:04:17.870 ,4,1,0.,4.8,0.,4.8,1.,4.8,0.,4.8
1979-07-23 06:04:22.670 ,7,1,0.,4.8,0.,4.8,0.,4.8,0.,4.8
1979-07-23 06:04:27.470 ,7,1,0.,4.8,0.,4.8,0.,4.8,0.,4.8
1979-07-23 06:04:32.270 ,7,1,2.,4.8,0.,4.8,0.,4.8,0.,4.8
1979-07-23 06:04:37.070 ,7,1,1.,4.8,0.,4.8,0.,4.8,0.,4.8
1979-07-23 06:04:41.870 ,7,1,1.,4.8,1.,4.8,0.,4.8,0.,4.8
1979-07-23 06:04:46.670 ,3,1,1.,4.8,0.,4.8,1.,4.8,0.,4.8
1979-07-23 06:04:51.470 ,3,1,1.,4.8,0.,4.8,0.,4.8,0.,4.8
1979-07-23 06:04:56.270 ,3,1,0.,4.8,0.,4.8,0.,4.8,0.,4.8
1979-07-23 06:05:01.070 ,3,1,0.,4.8,0.,4.8,0.,4.8,0.,4.8
1979-07-23 06:05:05.870 ,3,1,0.,4.8,0.,4.8,0.,4.8,0.,4.8
1979-07-23 06:05:10.670 ,0,1,0.,4.8,0.,4.8,0.,4.8,0.,4.8
1979-07-23 06:05:15.470 ,0,1,1.,4.8,0.,4.8,0.,4.8,0.,4.8
1979-07-23 06:05:20.270 ,0,1,0.,4.8,0.,4.8,0.,4.8,0.,4.8
1979-07-23 06:05:25.070 ,0,1,1.,4.8,0.,4.8,0.,4.8,0.,4.8
1979-07-23 06:05:29.870 ,0,1,0.,4.8,0.,4.8,0.,4.8,0.,4.8
1979-07-23 06:05:34.670 ,0,0,0.,4.8,0.,4.8,0.,4.8,0.,4.8
1979-07-23 06:05:39.470 ,0,0,0.,4.8,0.,4.8,0.,4.8,0.,4.8
1979-07-23 06:05:44.270 ,0,0,0.,4.8,0.,4.8,0.,4.8,0.,4.8
1979-07-23 06:05:49.070 ,0,0,0.,4.8,0.,4.8,1.,4.8,0.,4.8
1979-07-23 06:05:53.870 ,0,0,0.,4.8,0.,4.8,0.,4.8,0.,4.8
1979-07-23 06:05:58.670 ,0,0,1.,4.8,0.,4.8,0.,4.8,0.,4.8
1979-07-23 06:06:03.470 ,0,0,1.,4.8,0.,4.8,0.,4.8,0.,4.8
1979-07-23 06:06:08.270 ,0,0,1.,4.8,0.,4.8,0.,4.8,0.,4.8
1979-07-23 06:06:13.070 ,0,0,0.,4.8,0.,4.8,0.,4.8,0.,4.8
1979-07-23 06:06:17.870 ,0,0,0.,4.8,0.,4.8,0.,4.8,0.,4.8
1979-07-23 06:06:22.670 ,5,0,0.,4.8,0.,4.8,0.,4.8,0.,4.8
1979-07-23 06:06:27.470 ,5,0,2.,4.8,0.,4.8,0.,4.8,0.,4.8
1979-07-23 06:06:32.270 ,5,0,0.,4.8,0.,4.8,0.,4.8,0.,4.8
1979-07-23 06:06:37.070 ,5,0,1.,4.8,0.,4.8,1.,4.8,0.,4.8
1979-07-23 06:06:41.870 ,5,0,0.,4.8,0.,4.8,0.,4.8,0.,4.8
1979-07-23 06:06:46.670 ,5,0,0.,4.8,0.,4.8,0.,4.8,0.,4.8
1979-07-23 06:06:51.470 ,5,0,2.,4.8,0.,4.8,0.,4.8,0.,4.8
1979-07-23 06:06:56.270 ,5,0,0.,4.8,0.,4.8,1.,4.8,0.,4.8
1979-07-23 06:07:01.070 ,5,0,0.,4.8,0.,4.8,0.,4.8,0.,4.8
1979-07-23 06:07:05.870 ,5,0,0.,4.8,0.,4.8,0.,4.8,0.,4.8
1979-07-23 06:07:10.670 ,4,0,0.,4.8,0.,4.8,0.,4.8,0.,4.8
1979-07-23 06:07:15.470 ,4,0,0.,4.8,0.,4.8,0.,4.8,0.,4.8
1979-07-23 06:07:20.270 ,4,0,1.,4.8,0.,4.8,0.,4.8,0.,4.8
1979-07-23 06:07:25.070 ,4,0,0.,4.8,0.,4.8,0.,4.8,0.,4.8
1979-07-23 06:07:29.870 ,4,0,1.,4.8,0.,4.8,0.,4.8,0.,4.8
1979-07-23 06:07:34.670 ,4,0,1.,4.8,0.,4.8,0.,4.8,0.,4.8
1979-07-23 06:07:39.470 ,4,0,0.,4.8,0.,4.8,0.,4.8,0.,4.8
1979-07-23 06:07:44.270 ,4,0,0.,4.8,0.,4.8,0.,4.8,0.,4.8
1979-07-23 06:07:49.070 ,4,0,1.,4.8,1.,4.8,0.,4.8,0.,4.8
1979-07-23 06:07:53.870 ,4,0,0.,4.8,0.,4.8,0.,4.8,0.,4.8
1979-07-23 06:07:58.670 ,3,0,0.,4.8,0.,4.8,0.,4.8,0.,4.8
1979-07-23 06:08:03.470 ,3,0,0.,4.8,0.,4.8,0.,4.8,0.,4.8
1979-07-23 06:08:08.270 ,3,0,0.,4.8,0.,4.8,0.,4.8,0.,4.8
1979-07-23 06:08:13.070 ,3,0,0.,4.8,0.,4.8,0.,4.8,0.,4.8
1979-07-23 06:08:17.870 ,3,0,0.,4.8,0.,4.8,0.,4.8,0.,4.8
1979-07-23 06:08:22.670 ,3,0,0.,4.8,0.,4.8,0.,4.8,0.,4.8
1979-07-23 06:08:27.470 ,3,0,0.,4.8,0.,4.8,0.,4.8,0.,4.8
1979-07-23 06:08:32.270 ,3,0,0.,4.8,0.,4.8,0.,4.8,0.,4.8
1979-07-23 06:08:37.070 ,3,0,0.,4.8,0.,4.8,0.,4.8,0.,4.8
1979-07-23 06:08:41.870 ,3,0,0.,4.8,0.,4.8,0.,4.8,0.,4.8
1979-07-23 06:08:46.670 ,2,0,1.,4.8,0.,4.8,0.,4.8,0.,4.8
1979-07-23 06:08:51.470 ,2,0,0.,4.8,0.,4.8,0.,4.8,0.,4.8
1979-07-23 06:08:56.270 ,2,0,0.,4.8,0.,4.8,0.,4.8,0.,4.8
1979-07-23 06:09:01.070 ,2,0,1.,4.8,0.,4.8,0.,4.8,0.,4.8
1979-07-23 06:09:05.870 ,2,0,1.,4.8,0.,4.8,1.,4.8,0.,4.8
1979-07-23 06:09:10.670 ,2,0,0.,4.8,0.,4.8,0.,4.8,1.,4.8
1979-07-23 06:09:15.470 ,2,0,0.,4.8,0.,4.8,1.,4.8,0.,4.8
1979-07-23 06:09:20.270 ,2,0,0.,4.8,0.,4.8,0.,4.8,0.,4.8
1979-07-23 06:09:25.070 ,2,0,0.,4.8,0.,4.8,0.,4.8,0.,4.8
1979-07-23 06:09:29.870 ,2,0,0.,4.8,0.,4.8,0.,4.8,0.,4.8
1979-07-23 06:09:34.670 ,1,0,1.,4.8,0.,4.8,0.,4.8,0.,4.8
1979-07-23 06:09:39.470 ,1,0,0.,4.8,0.,4.8,0.,4.8,0.,4.8
1979-07-23 06:09:44.270 ,1,0,1.,4.8,0.,4.8,0.,4.8,0.,4.8
1979-07-23 06:09:49.070 ,1,0,0.,4.8,0.,4.8,1.,4.8,0.,4.8
1979-07-23 06:09:53.870 ,1,0,0.,4.8,0.,4.8,0.,4.8,0.,4.8
1979-07-23 06:09:58.670 ,1,0,0.,4.8,0.,4.8,0.,4.8,0.,4.8
1979-07-23 06:10:03.470 ,1,0,0.,4.8,0.,4.8,0.,4.8,0.,4.8
1979-07-23 06:10:08.270 ,1,0,0.,4.8,0.,4.8,0.,4.8,0.,4.8
1979-07-23 06:10:13.070 ,1,0,0.,4.8,0.,4.8,0.,4.8,0.,4.8
1979-07-23 06:10:17.870 ,1,0,1.,4.8,0.,4.8,0.,4.8,0.,4.8
1979-07-23 06:10:22.670 ,0,0,0.,4.8,0.,4.8,0.,4.8,0.,4.8
1979-07-23 06:10:27.470 ,0,0,0.,4.8,0.,4.8,0.,4.8,0.,4.8
1979-07-23 06:10:32.270 ,0,0,1.,4.8,0.,4.8,0.,4.8,0.,4.8
1979-07-23 06:10:37.070 ,0,0,0.,4.8,0.,4.8,0.,4.8,0.,4.8
1979-07-23 06:10:41.870 ,0,0,0.,4.8,0.,4.8,1.,4.8,0.,4.8
1979-07-23 06:10:46.670 ,0,0,0.,4.8,0.,4.8,0.,4.8,0.,4.8
1979-07-23 06:10:51.470 ,0,0,0.,4.8,0.,4.8,1.,4.8,0.,4.8
1979-07-23 06:10:56.270 ,0,0,0.,4.8,0.,4.8,0.,4.8,0.,4.8
1979-07-23 06:11:01.070 ,0,0,0.,4.8,0.,4.8,0.,4.8,0.,4.8
1979-07-23 06:11:05.870 ,0,0,2.,4.8,0.,4.8,1.,4.8,0.,4.8
1979-07-23 06:11:10.670 ,0,0,0.,4.8,0.,4.8,0.,4.8,0.,4.8
1979-07-23 06:11:15.470 ,0,0,0.,4.8,0.,4.8,0.,4.8,0.,4.8
1979-07-23 06:11:20.270 ,0,0,1.,4.8,0.,4.8,0.,4.8,0.,4.8
1979-07-23 06:11:25.070 ,0,0,0.,4.8,0.,4.8,0.,4.8,0.,4.8
1979-07-23 06:11:29.870 ,0,0,0.,4.8,0.,4.8,0.,4.8,0.,4.8
1979-07-23 06:11:34.670 ,0,0,2.,4.8,0.,4.8,0.,4.8,0.,4.8
1979-07-23 06:11:39.470 ,0,0,1.,4.8,0.,4.8,0.,4.8,0.,4.8
1979-07-23 06:11:44.270 ,0,0,1.,4.8,0.,4.8,0.,4.8,0.,4.8
1979-07-23 06:11:49.070 ,0,0,0.,4.8,0.,4.8,0.,4.8,0.,4.8
1979-07-23 06:11:53.870 ,0,0,0.,4.8,0.,4.8,0.,4.8,0.,4.8
1979-07-23 06:11:58.670 ,1,0,0.,4.8,1.,4.8,0.,4.8,0.,4.8
1979-07-23 06:12:03.470 ,1,0,0.,4.8,0.,4.8,0.,4.8,0.,4.8
1979-07-23 06:12:08.270 ,1,0,1.,4.8,1.,4.8,0.,4.8,0.,4.8
1979-07-23 06:12:13.070 ,1,0,0.,4.8,0.,4.8,0.,4.8,0.,4.8
1979-07-23 06:12:17.870 ,1,0,0.,4.8,0.,4.8,0.,4.8,0.,4.8
1979-07-23 06:12:22.670 ,1,0,2.,4.8,0.,4.8,0.,4.8,0.,4.8
1979-07-23 06:12:27.470 ,1,0,0.,4.8,0.,4.8,0.,4.8,0.,4.8
1979-07-23 06:12:32.270 ,1,0,0.,4.8,0.,4.8,0.,4.8,0.,4.8
1979-07-23 06:12:37.070 ,1,0,0.,4.8,0.,4.8,0.,4.8,0.,4.8
1979-07-23 06:12:41.870 ,1,0,0.,4.8,0.,4.8,0.,4.8,1.,4.8
1979-07-23 06:12:46.670 ,2,0,0.,4.8,0.,4.8,0.,4.8,0.,4.8
1979-07-23 06:12:51.470 ,2,0,1.,4.8,0.,4.8,0.,4.8,0.,4.8
1979-07-23 06:12:56.270 ,2,0,2.,4.8,0.,4.8,1.,4.8,0.,4.8
1979-07-23 06:13:01.070 ,2,0,1.,4.8,0.,4.8,0.,4.8,1.,4.8
1979-07-23 06:13:05.870 ,2,0,0.,4.8,0.,4.8,0.,4.8,0.,4.8
1979-07-23 06:13:10.670 ,2,0,0.,4.8,0.,4.8,0.,4.8,0.,4.8
1979-07-23 06:13:15.470 ,2,0,1.,4.8,0.,4.8,0.,4.8,0.,4.8
1979-07-23 06:13:20.270 ,2,0,0.,4.8,0.,4.8,0.,4.8,0.,4.8
1979-07-23 06:13:25.070 ,2,0,2.,4.8,0.,4.8,0.,4.8,0.,4.8
1979-07-23 06:13:29.870 ,2,0,0.,4.8,0.,4.8,0.,4.8,0.,4.8
1979-07-23 06:13:34.670 ,3,0,0.,4.8,0.,4.8,1.,4.8,0.,4.8
1979-07-23 06:13:39.470 ,3,0,0.,4.8,0.,4.8,0.,4.8,0.,4.8
1979-07-23 06:13:44.270 ,3,0,2.,4.8,0.,4.8,0.,4.8,0.,4.8
1979-07-23 06:13:49.070 ,3,0,0.,4.8,0.,4.8,0.,4.8,0.,4.8
1979-07-23 06:13:53.870 ,3,0,0.,4.8,0.,4.8,0.,4.8,0.,4.8
1979-07-23 06:13:58.670 ,3,0,0.,4.8,0.,4.8,0.,4.8,0.,4.8
1979-07-23 06:14:03.470 ,3,0,0.,4.8,0.,4.8,0.,4.8,0.,4.8
1979-07-23 06:14:08.270 ,3,0,1.,4.8,0.,4.8,1.,4.8,0.,4.8
1979-07-23 06:14:13.070 ,3,0,0.,4.8,0.,4.8,0.,4.8,0.,4.8
1979-07-23 06:14:17.870 ,3,0,1.,4.8,0.,4.8,0.,4.8,0.,4.8
1979-07-23 06:14:22.670 ,4,0,0.,4.8,0.,4.8,0.,4.8,0.,4.8
1979-07-23 06:14:27.470 ,4,0,3.,4.8,0.,4.8,0.,4.8,0.,4.8
1979-07-23 06:14:32.270 ,4,0,0.,4.8,0.,4.8,0.,4.8,0.,4.8
1979-07-23 06:14:37.070 ,4,0,1.,4.8,0.,4.8,0.,4.8,0.,4.8
1979-07-23 06:14:41.870 ,4,0,0.,4.8,0.,4.8,0.,4.8,0.,4.8
1979-07-23 06:14:46.670 ,4,0,1.,4.8,0.,4.8,0.,4.8,0.,4.8
1979-07-23 06:14:51.470 ,4,0,1.,4.8,0.,4.8,0.,4.8,0.,4.8
1979-07-23 06:14:56.270 ,4,0,0.,4.8,0.,4.8,0.,4.8,0.,4.8
1979-07-23 06:15:01.070 ,4,0,0.,4.8,0.,4.8,0.,4.8,0.,4.8
1979-07-23 06:15:05.870 ,4,0,0.,4.8,0.,4.8,0.,4.8,0.,4.8
1979-07-23 06:15:10.670 ,5,0,0.,4.8,0.,4.8,0.,4.8,0.,4.8
1979-07-23 06:15:15.470 ,5,0,0.,4.8,0.,4.8,0.,4.8,0.,4.8
1979-07-23 06:15:20.270 ,5,0,2.,4.8,0.,4.8,0.,4.8,0.,4.8
1979-07-23 06:15:25.070 ,5,0,0.,4.8,0.,4.8,0.,4.8,0.,4.8
1979-07-23 06:15:29.870 ,5,0,0.,4.8,1.,4.8,0.,4.8,0.,4.8
1979-07-23 06:15:34.670 ,5,0,1.,4.8,0.,4.8,0.,4.8,1.,4.8
1979-07-23 06:15:39.470 ,5,0,0.,4.8,0.,4.8,0.,4.8,0.,4.8
1979-07-23 06:15:44.270 ,5,0,0.,4.8,0.,4.8,0.,4.8,0.,4.8
1979-07-23 06:15:49.070 ,5,0,0.,4.8,0.,4.8,0.,4.8,0.,4.8
1979-07-23 06:15:53.870 ,5,0,0.,4.8,0.,4.8,0.,4.8,0.,4.8
1979-07-23 06:15:58.670 ,6,0,0.,4.8,0.,4.8,0.,4.8,0.,4.8
1979-07-23 06:16:03.470 ,6,0,1.,4.8,0.,4.8,0.,4.8,0.,4.8
1979-07-23 06:16:08.270 ,6,0,1.,4.8,0.,4.8,1.,4.8,0.,4.8
1979-07-23 06:16:13.070 ,6,0,0.,4.8,0.,4.8,0.,4.8,0.,4.8
1979-07-23 06:16:17.870 ,6,0,1.,4.8,0.,4.8,0.,4.8,0.,4.8
1979-07-23 06:16:22.670 ,6,0,0.,4.8,0.,4.8,0.,4.8,0.,4.8
1979-07-23 06:16:27.470 ,6,0,0.,4.8,0.,4.8,0.,4.8,0.,4.8
1979-07-23 06:16:32.270 ,6,0,0.,4.8,0.,4.8,0.,4.8,0.,4.8
1979-07-23 06:16:37.070 ,6,0,0.,4.8,0.,4.8,0.,4.8,0.,4.8
1979-07-23 06:16:41.870 ,6,0,0.,4.8,0.,4.8,0.,4.8,0.,4.8
1979-07-23 06:16:46.670 ,7,0,0.,4.8,0.,4.8,0.,4.8,0.,4.8
1979-07-23 06:16:51.470 ,7,0,0.,4.8,0.,4.8,1.,4.8,0.,4.8
1979-07-23 06:16:56.270 ,7,0,0.,4.8,1.,4.8,0.,4.8,0.,4.8
1979-07-23 06:17:01.070 ,7,0,1.,4.8,0.,4.8,2.,4.8,0.,4.8
1979-07-23 06:17:05.870 ,7,0,0.,4.8,0.,4.8,0.,4.8,0.,4.8
1979-07-23 06:17:10.670 ,7,0,1.,4.8,0.,4.8,0.,4.8,0.,4.8
1979-07-23 06:17:15.470 ,7,0,0.,4.8,0.,4.8,0.,4.8,0.,4.8
1979-07-23 06:17:20.270 ,7,0,0.,4.8,0.,4.8,0.,4.8,0.,4.8
1979-07-23 06:17:25.070 ,7,0,0.,4.8,0.,4.8,0.,4.8,0.,4.8
1979-07-23 06:17:29.870 ,7,0,1.,4.8,0.,4.8,0.,4.8,0.,4.8
1979-07-23 06:17:34.670 ,7,0,0.,4.8,0.,4.8,0.,4.8,0.,4.8
1979-07-23 06:17:39.470 ,7,0,0.,4.8,0.,4.8,0.,4.8,0.,4.8
1979-07-23 06:17:44.270 ,7,0,0.,4.8,0.,4.8,0.,4.8,0.,4.8
1979-07-23 06:17:49.070 ,7,0,1.,4.8,0.,4.8,1.,4.8,0.,4.8
1979-07-23 06:17:53.870 ,7,0,0.,4.8,0.,4.8,0.,4.8,0.,4.8
1979-07-23 06:17:58.670 ,7,0,0.,4.8,0.,4.8,0.,4.8,0.,4.8
1979-07-23 06:18:03.470 ,7,0,0.,4.8,0.,4.8,0.,4.8,0.,4.8
1979-07-23 06:18:08.270 ,7,0,0.,4.8,0.,4.8,1.,4.8,0.,4.8
1979-07-23 06:18:13.070 ,7,0,0.,4.8,0.,4.8,0.,4.8,0.,4.8
1979-07-23 06:18:17.870 ,7,0,0.,4.8,0.,4.8,0.,4.8,0.,4.8
1979-07-23 06:18:22.670 ,6,0,0.,4.8,1.,4.8,0.,4.8,0.,4.8
1979-07-23 06:18:27.470 ,6,0,0.,4.8,0.,4.8,0.,4.8,0.,4.8
1979-07-23 06:18:32.270 ,6,0,0.,4.8,0.,4.8,0.,4.8,0.,4.8
1979-07-23 06:18:37.070 ,6,0,0.,4.8,0.,4.8,0.,4.8,0.,4.8
1979-07-23 06:18:41.870 ,6,0,0.,4.8,0.,4.8,0.,4.8,0.,4.8
1979-07-23 06:18:46.670 ,6,0,1.,4.8,0.,4.8,0.,4.8,0.,4.8
1979-07-23 06:18:51.470 ,6,0,1.,4.8,0.,4.8,0.,4.8,1.,4.8
1979-07-23 06:18:56.270 ,6,0,0.,4.8,0.,4.8,0.,4.8,0.,4.8
1979-07-23 06:19:01.070 ,6,0,1.,4.8,0.,4.8,0.,4.8,0.,4.8
1979-07-23 06:19:05.870 ,6,0,1.,4.8,0.,4.8,0.,4.8,0.,4.8
1979-07-23 06:19:10.670 ,5,0,1.,4.8,0.,4.8,0.,4.8,0.,4.8
1979-07-23 06:19:15.470 ,5,0,1.,4.8,0.,4.8,0.,4.8,0.,4.8
1979-07-23 06:19:20.270 ,5,0,0.,4.8,0.,4.8,0.,4.8,0.,4.8
1979-07-23 06:19:25.070 ,5,0,1.,4.8,0.,4.8,1.,4.8,0.,4.8
1979-07-23 06:19:29.870 ,5,0,0.,4.8,0.,4.8,0.,4.8,0.,4.8
1979-07-23 06:19:34.670 ,5,0,1.,4.8,0.,4.8,0.,4.8,0.,4.8
1979-07-23 06:19:39.470 ,5,0,0.,4.8,0.,4.8,1.,4.8,0.,4.8
1979-07-23 06:19:44.270 ,5,0,1.,4.8,0.,4.8,0.,4.8,0.,4.8
1979-07-23 06:19:49.070 ,5,0,1.,4.8,0.,4.8,0.,4.8,0.,4.8
1979-07-23 06:19:53.870 ,5,0,0.,4.8,0.,4.8,0.,4.8,0.,4.8
1979-07-23 06:19:58.670 ,4,0,0.,4.8,1.,4.8,0.,4.8,0.,4.8
1979-07-23 06:20:03.470 ,4,0,0.,4.8,0.,4.8,0.,4.8,0.,4.8
1979-07-23 06:20:08.270 ,4,0,0.,4.8,0.,4.8,0.,4.8,0.,4.8
1979-07-23 06:20:13.070 ,4,0,1.,4.8,0.,4.8,0.,4.8,0.,4.8
1979-07-23 06:20:17.870 ,4,0,0.,4.8,0.,4.8,0.,4.8,0.,4.8
1979-07-23 06:20:22.670 ,4,0,0.,4.8,0.,4.8,0.,4.8,0.,4.8
1979-07-23 06:20:27.470 ,4,0,0.,4.8,0.,4.8,0.,4.8,0.,4.8
1979-07-23 06:20:32.270 ,4,0,0.,4.8,0.,4.8,1.,4.8,0.,4.8
1979-07-23 06:20:37.070 ,4,0,0.,4.8,0.,4.8,0.,4.8,0.,4.8
1979-07-23 06:20:41.870 ,4,0,0.,4.8,0.,4.8,0.,4.8,0.,4.8
1979-07-23 06:20:46.670 ,3,0,1.,4.8,0.,4.8,0.,4.8,0.,4.8
1979-07-23 06:20:51.470 ,3,0,0.,4.8,0.,4.8,0.,4.8,0.,4.8
1979-07-23 06:20:56.270 ,3,0,0.,4.8,0.,4.8,0.,4.8,0.,4.8
1979-07-23 06:21:01.070 ,3,0,0.,4.8,0.,4.8,0.,4.8,0.,4.8
1979-07-23 06:21:05.870 ,3,0,0.,4.8,0.,4.8,0.,4.8,0.,4.8
1979-07-23 06:21:10.670 ,3,0,2.,4.8,0.,4.8,0.,4.8,0.,4.8
1979-07-23 06:21:15.470 ,3,0,2.,4.8,0.,4.8,0.,4.8,0.,4.8
1979-07-23 06:21:20.270 ,3,0,0.,4.8,0.,4.8,0.,4.8,0.,4.8
1979-07-23 06:21:25.070 ,3,0,0.,4.8,0.,4.8,0.,4.8,0.,4.8
1979-07-23 06:21:29.870 ,3,0,0.,4.8,0.,4.8,1.,4.8,0.,4.8
1979-07-23 06:21:34.670 ,2,0,1.,4.8,0.,4.8,0.,4.8,0.,4.8
1979-07-23 06:21:39.470 ,2,0,0.,4.8,0.,4.8,0.,4.8,0.,4.8
1979-07-23 06:21:44.270 ,2,0,1.,4.8,0.,4.8,1.,4.8,0.,4.8
1979-07-23 06:21:49.070 ,2,0,0.,4.8,0.,4.8,0.,4.8,0.,4.8
1979-07-23 06:21:53.870 ,2,0,0.,4.8,0.,4.8,0.,4.8,0.,4.8
1979-07-23 06:21:58.670 ,2,0,1.,4.8,0.,4.8,0.,4.8,0.,4.8
1979-07-23 06:22:03.470 ,2,0,0.,4.8,0.,4.8,0.,4.8,0.,4.8
1979-07-23 06:22:08.270 ,2,0,0.,4.8,0.,4.8,0.,4.8,0.,4.8
1979-07-23 06:22:13.070 ,2,0,0.,4.8,0.,4.8,0.,4.8,0.,4.8
1979-07-23 06:22:17.870 ,2,0,0.,4.8,0.,4.8,0.,4.8,0.,4.8
1979-07-23 06:22:22.670 ,1,0,0.,4.8,0.,4.8,0.,4.8,0.,4.8
1979-07-23 06:22:27.470 ,1,0,0.,4.8,0.,4.8,0.,4.8,0.,4.8
1979-07-23 06:22:32.270 ,1,0,0.,4.8,0.,4.8,0.,4.8,0.,4.8
1979-07-23 06:22:37.070 ,1,0,0.,4.8,0.,4.8,0.,4.8,0.,4.8
1979-07-23 06:22:41.870 ,1,0,0.,4.8,0.,4.8,0.,4.8,0.,4.8
1979-07-23 06:22:46.670 ,1,0,0.,4.8,0.,4.8,0.,4.8,0.,4.8
1979-07-23 06:22:51.470 ,1,0,0.,4.8,0.,4.8,1.,4.8,0.,4.8
1979-07-23 06:22:56.270 ,1,0,1.,4.8,0.,4.8,0.,4.8,0.,4.8
1979-07-23 06:23:01.070 ,1,0,0.,4.8,0.,4.8,0.,4.8,0.,4.8
1979-07-23 06:23:05.870 ,1,0,1.,4.8,0.,4.8,0.,4.8,0.,4.8
1979-07-23 06:23:10.670 ,0,0,0.,4.8,0.,4.8,0.,4.8,0.,4.8
1979-07-23 06:23:15.470 ,0,0,0.,4.8,0.,4.8,0.,4.8,0.,4.8
1979-07-23 06:23:20.270 ,0,0,0.,4.8,0.,4.8,1.,4.8,0.,4.8
1979-07-23 06:23:25.070 ,0,0,0.,4.8,0.,4.8,0.,4.8,0.,4.8
1979-07-23 06:23:29.870 ,0,0,0.,4.8,0.,4.8,0.,4.8,0.,4.8
1979-07-23 06:23:34.670 ,0,0,0.,4.8,0.,4.8,0.,4.8,0.,4.8
1979-07-23 06:23:39.470 ,0,0,0.,4.8,0.,4.8,1.,4.8,0.,4.8
1979-07-23 06:23:44.270 ,0,0,3.,4.8,0.,4.8,0.,4.8,1.,4.8
1979-07-23 06:23:49.070 ,0,0,0.,4.8,0.,4.8,0.,4.8,0.,4.8
1979-07-23 06:23:53.870 ,0,0,0.,4.8,0.,4.8,0.,4.8,0.,4.8
1979-07-23 06:23:58.670 ,0,0,0.,4.8,0.,4.8,0.,4.8,0.,4.8
1979-07-23 06:24:03.470 ,0,0,1.,4.8,0.,4.8,0.,4.8,0.,4.8
1979-07-23 06:24:08.270 ,0,0,1.,4.8,0.,4.8,0.,4.8,0.,4.8
1979-07-23 06:24:13.070 ,0,0,0.,4.8,0.,4.8,0.,4.8,0.,4.8
1979-07-23 06:24:17.870 ,0,0,0.,4.8,0.,4.8,0.,4.8,0.,4.8
1979-07-23 06:24:22.670 ,0,0,1.,4.8,0.,4.8,0.,4.8,0.,4.8
1979-07-23 06:24:27.470 ,0,0,0.,4.8,0.,4.8,0.,4.8,0.,4.8
1979-07-23 06:24:32.270 ,0,0,0.,4.8,0.,4.8,0.,4.8,0.,4.8
1979-07-23 06:24:37.070 ,0,0,0.,4.8,0.,4.8,0.,4.8,0.,4.8
1979-07-23 06:24:41.870 ,0,0,0.,4.8,0.,4.8,0.,4.8,0.,4.8
1979-07-23 06:24:46.670 ,1,0,0.,4.8,0.,4.8,1.,4.8,0.,4.8
1979-07-23 06:24:51.470 ,1,0,0.,4.8,0.,4.8,0.,4.8,1.,4.8
1979-07-23 06:24:56.270 ,1,0,1.,4.8,0.,4.8,0.,4.8,0.,4.8
1979-07-23 06:25:01.070 ,1,0,0.,4.8,1.,4.8,0.,4.8,0.,4.8
1979-07-23 06:25:05.870 ,1,0,0.,4.8,0.,4.8,0.,4.8,0.,4.8
1979-07-23 06:25:10.670 ,1,0,0.,4.8,0.,4.8,0.,4.8,0.,4.8
1979-07-23 06:25:15.470 ,1,0,2.,4.8,0.,4.8,0.,4.8,0.,4.8
1979-07-23 06:25:20.270 ,1,0,0.,4.8,0.,4.8,0.,4.8,0.,4.8
1979-07-23 06:25:25.070 ,1,0,0.,4.8,0.,4.8,0.,4.8,0.,4.8
1979-07-23 06:25:29.870 ,1,0,0.,4.8,0.,4.8,0.,4.8,0.,4.8
1979-07-23 06:25:34.670 ,2,0,0.,4.8,0.,4.8,0.,4.8,0.,4.8
1979-07-23 06:25:39.470 ,2,0,0.,4.8,0.,4.8,0.,4.8,0.,4.8
1979-07-23 06:25:44.270 ,2,0,1.,4.8,0.,4.8,0.,4.8,0.,4.8
1979-07-23 06:25:49.070 ,2,0,0.,4.8,0.,4.8,0.,4.8,0.,4.8
1979-07-23 06:25:53.870 ,2,0,0.,4.8,0.,4.8,0.,4.8,0.,4.8
1979-07-23 06:25:58.670 ,2,0,0.,4.8,0.,4.8,0.,4.8,0.,4.8
1979-07-23 06:26:03.470 ,2,0,0.,4.8,0.,4.8,0.,4.8,0.,4.8
1979-07-23 06:26:08.270 ,2,0,1.,4.8,0.,4.8,0.,4.8,0.,4.8
1979-07-23 06:26:13.070 ,2,0,1.,4.8,0.,4.8,0.,4.8,0.,4.8
1979-07-23 06:26:17.870 ,2,0,0.,4.8,0.,4.8,1.,4.8,0.,4.8
1979-07-23 06:26:22.670 ,3,0,1.,4.8,0.,4.8,1.,4.8,0.,4.8
1979-07-23 06:26:27.470 ,3,0,0.,4.8,0.,4.8,0.,4.8,0.,4.8
1979-07-23 06:26:32.270 ,3,0,0.,4.8,0.,4.8,0.,4.8,0.,4.8
1979-07-23 06:26:37.070 ,3,0,0.,4.8,0.,4.8,0.,4.8,0.,4.8
1979-07-23 06:26:41.870 ,3,0,0.,4.8,0.,4.8,1.,4.8,0.,4.8
1979-07-23 06:26:46.670 ,3,0,0.,4.8,0.,4.8,0.,4.8,0.,4.8
1979-07-23 06:26:51.470 ,3,0,1.,4.8,0.,4.8,0.,4.8,0.,4.8
1979-07-23 06:26:56.270 ,3,0,0.,4.8,0.,4.8,0.,4.8,0.,4.8
1979-07-23 06:27:01.070 ,3,0,0.,4.8,0.,4.8,1.,4.8,0.,4.8
1979-07-23 06:27:05.870 ,3,0,0.,4.8,0.,4.8,0.,4.8,0.,4.8
1979-07-23 06:27:10.670 ,4,0,0.,4.8,0.,4.8,0.,4.8,0.,4.8
1979-07-23 06:27:15.470 ,4,0,0.,4.8,0.,4.8,0.,4.8,0.,4.8
1979-07-23 06:27:20.270 ,4,0,1.,4.8,0.,4.8,0.,4.8,0.,4.8
1979-07-23 06:27:25.070 ,4,0,0.,4.8,0.,4.8,0.,4.8,0.,4.8
1979-07-23 06:27:29.870 ,4,0,0.,4.8,0.,4.8,0.,4.8,0.,4.8
1979-07-23 06:27:34.670 ,4,0,1.,4.8,1.,4.8,1.,4.8,0.,4.8
1979-07-23 06:27:39.470 ,4,0,0.,4.8,0.,4.8,0.,4.8,0.,4.8
1979-07-23 06:27:44.270 ,4,0,0.,4.8,0.,4.8,0.,4.8,0.,4.8
1979-07-23 06:27:49.070 ,4,0,1.,4.8,0.,4.8,0.,4.8,0.,4.8
1979-07-23 06:27:53.870 ,4,0,1.,4.8,0.,4.8,0.,4.8,0.,4.8
1979-07-23 06:27:58.670 ,5,0,0.,4.8,0.,4.8,0.,4.8,0.,4.8
1979-07-23 06:28:03.470 ,5,0,2.,4.8,0.,4.8,0.,4.8,0.,4.8
1979-07-23 06:28:08.270 ,5,0,2.,4.8,0.,4.8,0.,4.8,0.,4.8
1979-07-23 06:28:13.070 ,5,0,0.,4.8,0.,4.8,0.,4.8,0.,4.8
1979-07-23 06:28:17.870 ,5,0,0.,4.8,0.,4.8,0.,4.8,0.,4.8
1979-07-23 06:28:22.670 ,5,0,0.,4.8,0.,4.8,1.,4.8,0.,4.8
1979-07-23 06:28:27.470 ,5,0,0.,4.8,0.,4.8,0.,4.8,0.,4.8
1979-07-23 06:28:32.270 ,5,0,0.,4.8,0.,4.8,0.,4.8,0.,4.8
1979-07-23 06:28:37.070 ,5,0,2.,4.8,0.,4.8,0.,4.8,0.,4.8
1979-07-23 06:28:41.870 ,5,0,1.,4.8,0.,4.8,0.,4.8,0.,4.8
1979-07-23 06:28:46.670 ,6,0,0.,4.8,0.,4.8,0.,4.8,0.,4.8
1979-07-23 06:28:51.470 ,6,0,1.,4.8,0.,4.8,0.,4.8,0.,4.8
1979-07-23 06:28:56.270 ,6,0,0.,4.8,0.,4.8,0.,4.8,0.,4.8
1979-07-23 06:29:01.070 ,6,0,1.,4.8,0.,4.8,0.,4.8,0.,4.8
1979-07-23 06:29:05.870 ,6,0,0.,4.8,0.,4.8,0.,4.8,0.,4.8
1979-07-23 06:29:10.670 ,6,0,1.,4.8,0.,4.8,0.,4.8,0.,4.8
1979-07-23 06:29:15.470 ,6,0,0.,4.8,0.,4.8,0.,4.8,0.,4.8
1979-07-23 06:29:20.270 ,6,0,0.,4.8,0.,4.8,0.,4.8,0.,4.8
1979-07-23 06:29:25.070 ,6,0,0.,4.8,0.,4.8,0.,4.8,0.,4.8
1979-07-23 06:29:29.870 ,6,0,0.,4.8,0.,4.8,0.,4.8,0.,4.8
1979-07-23 06:29:34.670 ,7,0,0.,4.8,0.,4.8,0.,4.8,0.,4.8
1979-07-23 06:29:39.470 ,7,0,0.,4.8,0.,4.8,1.,4.8,0.,4.8
1979-07-23 06:29:44.270 ,7,0,0.,4.8,0.,4.8,0.,4.8,0.,4.8
1979-07-23 06:29:49.070 ,7,0,0.,4.8,0.,4.8,0.,4.8,0.,4.8
1979-07-23 06:29:53.870 ,7,0,0.,4.8,0.,4.8,0.,4.8,0.,4.8
1979-07-23 06:29:58.670 ,7,0,0.,4.8,0.,4.8,0.,4.8,0.,4.8
1979-07-23 06:30:03.470 ,7,0,0.,4.8,0.,4.8,1.,4.8,0.,4.8
1979-07-23 06:30:08.270 ,7,0,0.,4.8,0.,4.8,0.,4.8,0.,4.8
1979-07-23 06:30:13.070 ,7,0,0.,4.8,0.,4.8,0.,4.8,0.,4.8
1979-07-23 06:30:17.870 ,7,0,0.,4.8,0.,4.8,0.,4.8,0.,4.8
1979-07-23 06:30:22.670 ,7,0,0.,4.8,0.,4.8,0.,4.8,0.,4.8
1979-07-23 06:30:27.470 ,7,0,0.,4.8,0.,4.8,1.,4.8,0.,4.8
1979-07-23 06:30:32.270 ,7,0,0.,4.8,0.,4.8,0.,4.8,0.,4.8
1979-07-23 06:30:37.070 ,7,0,0.,4.8,0.,4.8,0.,4.8,0.,4.8
1979-07-23 06:30:41.870 ,7,0,0.,4.8,0.,4.8,0.,4.8,0.,4.8
1979-07-23 06:30:46.670 ,7,0,0.,4.8,0.,4.8,0.,4.8,0.,4.8
1979-07-23 06:30:51.470 ,7,0,0.,4.8,0.,4.8,0.,4.8,0.,4.8
1979-07-23 06:30:56.270 ,7,0,0.,4.8,0.,4.8,0.,4.8,0.,4.8
1979-07-23 06:31:01.070 ,7,0,1.,4.8,0.,4.8,0.,4.8,0.,4.8
1979-07-23 06:31:05.870 ,7,0,0.,4.8,0.,4.8,0.,4.8,0.,4.8
1979-07-23 06:31:10.670 ,6,0,0.,4.8,0.,4.8,1.,4.8,0.,4.8
1979-07-23 06:31:15.470 ,6,0,2.,4.8,0.,4.8,0.,4.8,0.,4.8
1979-07-23 06:31:20.270 ,6,0,0.,4.8,0.,4.8,1.,4.8,0.,4.8
1979-07-23 06:31:25.070 ,6,0,0.,4.8,0.,4.8,0.,4.8,0.,4.8
1979-07-23 06:31:29.870 ,6,0,0.,4.8,0.,4.8,0.,4.8,0.,4.8
1979-07-23 06:31:34.670 ,6,0,0.,4.8,0.,4.8,0.,4.8,0.,4.8
1979-07-23 06:31:39.470 ,6,0,0.,4.8,0.,4.8,1.,4.8,0.,4.8
1979-07-23 06:31:44.270 ,6,0,0.,4.8,0.,4.8,0.,4.8,0.,4.8
1979-07-23 06:31:49.070 ,6,0,1.,4.8,0.,4.8,0.,4.8,0.,4.8
1979-07-23 06:31:53.870 ,6,0,0.,4.8,0.,4.8,0.,4.8,0.,4.8
1979-07-23 06:31:58.670 ,5,0,0.,4.8,0.,4.8,0.,4.8,0.,4.8
1979-07-23 06:32:03.470 ,5,0,0.,4.8,0.,4.8,0.,4.8,0.,4.8
1979-07-23 06:32:08.270 ,5,0,0.,4.8,0.,4.8,0.,4.8,0.,4.8
1979-07-23 06:32:13.070 ,5,0,0.,4.8,0.,4.8,1.,4.8,0.,4.8
1979-07-23 06:32:17.870 ,5,0,0.,4.8,1.,4.8,0.,4.8,0.,4.8
1979-07-23 06:32:22.670 ,5,0,0.,4.8,0.,4.8,0.,4.8,0.,4.8
1979-07-23 06:32:27.470 ,5,0,1.,4.8,0.,4.8,0.,4.8,0.,4.8
1979-07-23 06:32:32.270 ,5,0,0.,4.8,0.,4.8,0.,4.8,0.,4.8
1979-07-23 06:32:37.070 ,5,0,0.,4.8,0.,4.8,0.,4.8,0.,4.8
1979-07-23 06:32:41.870 ,5,0,1.,4.8,0.,4.8,0.,4.8,0.,4.8
1979-07-23 06:32:46.670 ,4,0,1.,4.8,0.,4.8,1.,4.8,0.,4.8
1979-07-23 06:32:51.470 ,4,0,0.,4.8,0.,4.8,0.,4.8,0.,4.8
1979-07-23 06:32:56.270 ,4,0,0.,4.8,0.,4.8,0.,4.8,0.,4.8
1979-07-23 06:33:01.070 ,4,0,0.,4.8,0.,4.8,0.,4.8,0.,4.8
1979-07-23 06:33:05.870 ,4,0,0.,4.8,0.,4.8,0.,4.8,0.,4.8
1979-07-23 06:33:10.670 ,4,0,0.,4.8,0.,4.8,0.,4.8,0.,4.8
1979-07-23 06:33:15.470 ,4,0,1.,4.8,0.,4.8,0.,4.8,0.,4.8